TTL2402 SBFZ-SBBE

Flight info

Callsign TTL2402
Flight time 1h 38m
Altitude 34000
Route ISUPI UZ81 PUPKI
Aircraft B734/M-SDE2E3FHIRW/S

Departure

Time 2026-05-06 17:31
Airport Pinto Martins International Airport (SBFZ)

Arrival

Time 2026-05-06 19:09
Airport Val de Cans/Júlio Cezar Ribeiro International Airport (SBBE)
Time Latitude Longitude Altitude Speed Heading
2026-05-06 17:10 -3.77847 -38.53382 89 ft 0 kts 195°
2026-05-06 17:22 -3.77833 -38.53379 89 ft 2 kts 194°
2026-05-06 17:23 -3.77818 -38.53375 89 ft 2 kts 195°
2026-05-06 17:23 -3.77803 -38.53371 89 ft 2 kts 194°
2026-05-06 17:23 -3.77789 -38.53365 89 ft 2 kts 216°
2026-05-06 17:23 -3.77776 -38.53350 89 ft 2 kts 240°
2026-05-06 17:24 -3.77771 -38.53341 89 ft 2 kts 252°
2026-05-06 17:24 -3.77769 -38.53326 89 ft 2 kts 271°
2026-05-06 17:24 -3.77770 -38.53316 89 ft 0 kts 283°
2026-05-06 17:24 -3.77772 -38.53310 89 ft 0 kts 286°
2026-05-06 17:26 -3.77771 -38.53312 89 ft 0 kts 286°
2026-05-06 17:26 -3.77768 -38.53323 89 ft 2 kts 286°
2026-05-06 17:26 -3.77760 -38.53351 89 ft 5 kts 284°
2026-05-06 17:27 -3.77749 -38.53395 89 ft 7 kts 284°
2026-05-06 17:27 -3.77734 -38.53457 89 ft 10 kts 283°
2026-05-06 17:27 -3.77714 -38.53541 89 ft 13 kts 283°
2026-05-06 17:27 -3.77674 -38.53681 89 ft 16 kts 286°
2026-05-06 17:28 -3.77653 -38.53765 89 ft 18 kts 283°
2026-05-06 17:28 -3.77618 -38.53901 89 ft 21 kts 285°
2026-05-06 17:28 -3.77575 -38.54053 89 ft 23 kts 284°
2026-05-06 17:28 -3.77533 -38.54225 89 ft 26 kts 285°
2026-05-06 17:29 -3.77505 -38.54332 89 ft 6 kts 284°
2026-05-06 17:29 -3.77496 -38.54365 89 ft 5 kts 294°
2026-05-06 17:29 -3.77457 -38.54383 89 ft 7 kts 356°
2026-05-06 17:29 -3.77368 -38.54361 89 ft 11 kts 17°
2026-05-06 17:30 -3.77345 -38.54331 89 ft 0 kts 98°
2026-05-06 17:30 -3.77404 -38.54111 89 ft 70 kts 105°
2026-05-06 17:30 -3.77595 -38.53400 89 ft 137 kts 106°
2026-05-06 17:31 -3.77902 -38.52311 301 ft 174 kts 108°
2026-05-06 17:31 -3.78226 -38.51140 938 ft 180 kts 108°
2026-05-06 17:31 -3.78320 -38.49802 1193 ft 213 kts 75°
2026-05-06 17:31 -3.76860 -38.48217 1462 ft 261 kts 21°
2026-05-06 17:32 -3.75647 -38.47992 1831 ft 272 kts
2026-05-06 17:32 -3.73769 -38.48294 2566 ft 278 kts 337°
2026-05-06 17:32 -3.72140 -38.49353 3365 ft 280 kts 321°
2026-05-06 17:32 -3.70983 -38.50251 3955 ft 283 kts 322°
2026-05-06 17:33 -3.69404 -38.51444 4739 ft 286 kts 323°
2026-05-06 17:33 -3.67797 -38.52634 5505 ft 289 kts 323°
2026-05-06 17:33 -3.66165 -38.53829 6259 ft 292 kts 323°
2026-05-06 17:33 -3.64467 -38.55900 7213 ft 293 kts 290°
2026-05-06 17:34 -3.63961 -38.57168 7686 ft 295 kts 290°
2026-05-06 17:34 -3.63200 -38.59092 8404 ft 298 kts 290°
2026-05-06 17:34 -3.62417 -38.61027 9117 ft 301 kts 290°
2026-05-06 17:34 -3.61616 -38.62978 9824 ft 304 kts 291°
2026-05-06 17:35 -3.60503 -38.65672 10261 ft 328 kts 291°
2026-05-06 17:35 -3.59901 -38.67122 10302 ft 345 kts 291°
2026-05-06 17:35 -3.58952 -38.69400 10633 ft 359 kts 291°
2026-05-06 17:36 -3.56994 -38.74086 11886 ft 368 kts 291°
2026-05-06 17:36 -3.56000 -38.76465 12540 ft 371 kts 291°
2026-05-06 17:36 -3.54999 -38.78859 13193 ft 373 kts 291°
2026-05-06 17:36 -3.53990 -38.81271 13830 ft 376 kts 291°
2026-05-06 17:37 -3.52975 -38.83698 14444 ft 378 kts 291°
2026-05-06 17:37 -3.51953 -38.86141 15045 ft 381 kts 291°
2026-05-06 17:37 -3.50929 -38.88591 15627 ft 383 kts 291°
2026-05-06 17:37 -3.49549 -38.91889 16402 ft 385 kts 291°
2026-05-06 17:38 -3.48855 -38.93547 16779 ft 387 kts 290°
2026-05-06 17:38 -3.47810 -38.96047 17337 ft 389 kts 290°
2026-05-06 17:38 -3.46758 -38.98560 17887 ft 391 kts 290°
2026-05-06 17:38 -3.45705 -39.01076 18427 ft 393 kts 290°
2026-05-06 17:39 -3.44642 -39.03618 18955 ft 395 kts 290°
2026-05-06 17:39 -3.43576 -39.06164 19468 ft 397 kts 290°
2026-05-06 17:39 -3.42502 -39.08731 19971 ft 400 kts 290°
2026-05-06 17:39 -3.41059 -39.12178 20622 ft 403 kts 290°
2026-05-06 17:40 -3.40334 -39.13910 20939 ft 404 kts 290°
2026-05-06 17:40 -3.39240 -39.16523 21408 ft 407 kts 290°
2026-05-06 17:40 -3.38144 -39.19141 21866 ft 409 kts 290°
2026-05-06 17:40 -3.37043 -39.21770 22311 ft 411 kts 290°
2026-05-06 17:41 -3.35933 -39.24420 22749 ft 413 kts 290°
2026-05-06 17:41 -3.34818 -39.27082 23179 ft 415 kts 290°
2026-05-06 17:41 -3.33697 -39.29759 23601 ft 417 kts 290°
2026-05-06 17:41 -3.32190 -39.33357 24147 ft 420 kts 291°
2026-05-06 17:42 -3.31436 -39.35157 24414 ft 421 kts 291°
2026-05-06 17:42 -3.29918 -39.38779 24936 ft 424 kts 291°
2026-05-06 17:42 -3.28783 -39.41529 25316 ft 426 kts 288°
2026-05-06 17:42 -3.28317 -39.43441 25535 ft 424 kts 274°
2026-05-06 17:43 -3.28459 -39.46384 25877 ft 423 kts 261°
2026-05-06 17:43 -3.28850 -39.49327 26224 ft 425 kts 262°
2026-05-06 17:43 -3.29161 -39.52280 26590 ft 427 kts 263°
2026-05-06 17:43 -3.29496 -39.56249 27059 ft 430 kts 264°
2026-05-06 17:44 -3.29650 -39.58255 27289 ft 431 kts 264°
2026-05-06 17:44 -3.29877 -39.61278 27651 ft 432 kts 264°
2026-05-06 17:44 -3.30099 -39.64294 28122 ft 431 kts 265°
2026-05-06 17:44 -3.30172 -39.65290 28295 ft 430 kts 265°
2026-05-06 17:45 -3.30539 -39.70312 29071 ft 427 kts 265°
2026-05-06 17:45 -3.30755 -39.73268 29580 ft 424 kts 265°
2026-05-06 17:45 -3.30970 -39.76210 30043 ft 422 kts 265°
2026-05-06 17:45 -3.31256 -39.80115 30578 ft 420 kts 265°
2026-05-06 17:46 -3.31399 -39.82061 30822 ft 420 kts 265°
2026-05-06 17:46 -3.31612 -39.84982 31184 ft 419 kts 265°
2026-05-06 17:46 -3.31825 -39.87889 31546 ft 418 kts 265°
2026-05-06 17:46 -3.32038 -39.90806 31912 ft 417 kts 265°
2026-05-06 17:47 -3.32250 -39.93708 32266 ft 416 kts 265°
2026-05-06 17:47 -3.32461 -39.96590 32604 ft 415 kts 265°
2026-05-06 17:47 -3.32671 -39.99477 32924 ft 414 kts 265°
2026-05-06 17:47 -3.32951 -40.03311 33332 ft 413 kts 265°
2026-05-06 17:48 -3.33091 -40.05225 33527 ft 412 kts 265°
2026-05-06 17:48 -3.33300 -40.08094 33810 ft 412 kts 265°
2026-05-06 17:48 -3.33509 -40.10972 33955 ft 414 kts 265°
2026-05-06 17:48 -3.33719 -40.13860 33963 ft 416 kts 265°
2026-05-06 17:49 -3.34139 -40.19635 33939 ft 414 kts 265°
2026-05-06 17:49 -3.34555 -40.25370 33920 ft 412 kts 265°
2026-05-06 17:50 -3.34971 -40.31097 33914 ft 412 kts 265°
2026-05-06 17:50 -3.35456 -40.37792 33913 ft 413 kts 265°
2026-05-06 17:51 -3.35804 -40.42593 33913 ft 413 kts 265°
2026-05-06 17:51 -3.36289 -40.49295 33913 ft 413 kts 265°
2026-05-06 17:52 -3.36407 -40.54077 33899 ft 412 kts 280°
2026-05-06 17:52 -3.34828 -40.60635 33915 ft 414 kts 282°
2026-05-06 17:53 -3.33798 -40.65335 33914 ft 414 kts 281°
2026-05-06 17:53 -3.32428 -40.71954 33914 ft 414 kts 281°
2026-05-06 17:54 -3.31457 -40.76670 33913 ft 414 kts 281°
2026-05-06 17:54 -3.30290 -40.82331 33914 ft 414 kts 281°
2026-05-06 17:55 -3.29123 -40.87996 33912 ft 414 kts 280°
2026-05-06 17:55 -3.27759 -40.94599 33911 ft 415 kts 279°
2026-05-06 17:56 -3.26780 -40.99337 33911 ft 416 kts 279°
2026-05-06 17:56 -3.25600 -41.05049 33912 ft 419 kts 278°
2026-05-06 17:57 -3.24411 -41.10795 33918 ft 420 kts 278°
2026-05-06 17:57 -3.23028 -41.17483 33913 ft 419 kts 278°
2026-05-06 17:58 -3.22041 -41.22255 33912 ft 419 kts 278°
2026-05-06 17:58 -3.20856 -41.27980 33913 ft 419 kts 278°
2026-05-06 17:59 -3.19669 -41.33711 33913 ft 419 kts 278°
2026-05-06 17:59 -3.18285 -41.40393 33913 ft 419 kts 278°
2026-05-06 18:00 -3.17296 -41.45171 33913 ft 419 kts 278°
2026-05-06 18:00 -3.16110 -41.50894 33913 ft 419 kts 278°
2026-05-06 18:01 -3.14922 -41.56626 33913 ft 419 kts 278°
2026-05-06 18:01 -3.13734 -41.62355 33886 ft 419 kts 278°
2026-05-06 18:02 -3.12348 -41.69051 33867 ft 419 kts 278°
2026-05-06 18:02 -3.11160 -41.74783 33888 ft 419 kts 278°
2026-05-06 18:03 -3.10176 -41.79562 33888 ft 419 kts 278°
2026-05-06 18:03 -3.08818 -41.86247 33886 ft 419 kts 278°
2026-05-06 18:04 -3.07846 -41.91021 33885 ft 419 kts 278°
2026-05-06 18:04 -3.06681 -41.96745 33886 ft 419 kts 278°
2026-05-06 18:05 -3.05514 -42.02471 33886 ft 419 kts 278°
2026-05-06 18:05 -3.04153 -42.09152 33886 ft 419 kts 278°
2026-05-06 18:06 -3.03179 -42.13930 33885 ft 419 kts 278°
2026-05-06 18:06 -3.01983 -42.19660 33886 ft 419 kts 279°
2026-05-06 18:07 -3.00777 -42.25394 33886 ft 420 kts 279°
2026-05-06 18:07 -2.99370 -42.32092 33886 ft 420 kts 279°
2026-05-06 18:08 -2.98364 -42.36878 33886 ft 421 kts 279°
2026-05-06 18:08 -2.97153 -42.42637 33886 ft 421 kts 279°
2026-05-06 18:09 -2.95942 -42.48394 33886 ft 421 kts 279°
2026-05-06 18:09 -2.94529 -42.55115 33886 ft 422 kts 279°
2026-05-06 18:10 -2.93518 -42.59920 33886 ft 422 kts 279°
2026-05-06 18:10 -2.92301 -42.65703 33873 ft 423 kts 279°
2026-05-06 18:11 -2.91087 -42.71484 33886 ft 423 kts 279°
2026-05-06 18:11 -2.89663 -42.78235 33879 ft 424 kts 280°
2026-05-06 18:12 -2.88629 -42.83054 33886 ft 423 kts 279°
2026-05-06 18:12 -2.87407 -42.88826 33886 ft 424 kts 279°
2026-05-06 18:13 -2.86187 -42.94611 33887 ft 424 kts 279°
2026-05-06 18:13 -2.84762 -43.01373 33883 ft 425 kts 279°
2026-05-06 18:14 -2.83740 -43.06220 33884 ft 427 kts 279°
2026-05-06 18:14 -2.82508 -43.12063 33887 ft 429 kts 279°
2026-05-06 18:15 -2.81268 -43.17938 33886 ft 431 kts 279°
2026-05-06 18:15 -2.79818 -43.24812 33890 ft 432 kts 279°
2026-05-06 18:16 -2.78778 -43.29735 33888 ft 432 kts 279°
2026-05-06 18:16 -2.77328 -43.36605 33886 ft 431 kts 279°
2026-05-06 18:17 -2.76289 -43.41526 33886 ft 431 kts 279°
2026-05-06 18:17 -2.75041 -43.47434 33886 ft 432 kts 279°
2026-05-06 18:18 -2.73796 -43.53328 33886 ft 432 kts 279°
2026-05-06 18:18 -2.72551 -43.59218 33886 ft 431 kts 279°
2026-05-06 18:19 -2.71311 -43.65113 33890 ft 430 kts 279°
2026-05-06 18:19 -2.69870 -43.71982 33887 ft 430 kts 279°
2026-05-06 18:20 -2.68841 -43.76873 33887 ft 430 kts 279°
2026-05-06 18:20 -2.67590 -43.82817 33887 ft 430 kts 279°
2026-05-06 18:21 -2.66346 -43.88719 33886 ft 430 kts 279°
2026-05-06 18:21 -2.64898 -43.95601 33886 ft 430 kts 279°
2026-05-06 18:22 -2.63864 -44.00503 33886 ft 430 kts 279°
2026-05-06 18:22 -2.62626 -44.06388 33886 ft 430 kts 279°
2026-05-06 18:23 -2.61388 -44.12270 33886 ft 430 kts 279°
2026-05-06 18:23 -2.59945 -44.19128 33886 ft 430 kts 279°
2026-05-06 18:24 -2.58904 -44.24027 33885 ft 431 kts 281°
2026-05-06 18:24 -2.57293 -44.29830 33887 ft 432 kts 283°
2026-05-06 18:25 -2.55634 -44.35626 33886 ft 431 kts 283°
2026-05-06 18:25 -2.53992 -44.41426 33886 ft 431 kts 283°
2026-05-06 18:26 -2.52351 -44.47229 33886 ft 431 kts 283°
2026-05-06 18:26 -2.50711 -44.53025 33886 ft 431 kts 283°
2026-05-06 18:27 -2.49070 -44.58826 33886 ft 431 kts 283°
2026-05-06 18:27 -2.47154 -44.65596 33878 ft 432 kts 283°
2026-05-06 18:28 -2.45791 -44.70430 33881 ft 431 kts 283°
2026-05-06 18:28 -2.44151 -44.76229 33887 ft 432 kts 283°
2026-05-06 18:29 -2.42510 -44.82025 33887 ft 431 kts 283°
2026-05-06 18:29 -2.40594 -44.88795 33886 ft 431 kts 283°
2026-05-06 18:30 -2.39227 -44.93624 33885 ft 432 kts 283°
2026-05-06 18:30 -2.37309 -45.00404 33886 ft 433 kts 283°
2026-05-06 18:31 -2.35935 -45.05253 33887 ft 433 kts 283°
2026-05-06 18:31 -2.34010 -45.12049 33907 ft 433 kts 283°
2026-05-06 18:32 -2.32634 -45.16906 33916 ft 434 kts 283°
2026-05-06 18:32 -2.30980 -45.22740 33915 ft 434 kts 283°
2026-05-06 18:33 -2.29329 -45.28567 33913 ft 434 kts 283°
2026-05-06 18:33 -2.27401 -45.35368 33913 ft 434 kts 283°
2026-05-06 18:34 -2.26598 -45.41323 33913 ft 430 kts 271°
2026-05-06 18:34 -2.26131 -45.47317 33915 ft 430 kts 272°
2026-05-06 18:35 -2.25698 -45.52307 33914 ft 430 kts 272°
2026-05-06 18:35 -2.25089 -45.59173 33913 ft 430 kts 272°
2026-05-06 18:36 -2.24646 -45.64163 33913 ft 430 kts 272°
2026-05-06 18:36 -2.24025 -45.71151 33912 ft 430 kts 272°
2026-05-06 18:37 -2.23582 -45.76141 33914 ft 430 kts 272°
2026-05-06 18:37 -2.22961 -45.83125 33914 ft 430 kts 272°
2026-05-06 18:38 -2.22518 -45.88108 33913 ft 430 kts 272°
2026-05-06 18:38 -2.21985 -45.94095 33913 ft 430 kts 272°
2026-05-06 18:39 -2.21452 -46.00078 33913 ft 430 kts 272°
2026-05-06 18:40 -2.20563 -46.10052 33913 ft 430 kts 272°
2026-05-06 18:40 -2.20118 -46.15040 33913 ft 430 kts 272°
2026-05-06 18:41 -2.19585 -46.21022 33913 ft 430 kts 272°
2026-05-06 18:41 -2.19051 -46.27006 33913 ft 430 kts 272°
2026-05-06 18:42 -2.18517 -46.32985 33913 ft 430 kts 272°
2026-05-06 18:42 -2.17983 -46.38960 33913 ft 430 kts 272°
2026-05-06 18:43 -2.17448 -46.44950 33913 ft 430 kts 272°
2026-05-06 18:43 -2.16913 -46.50937 33913 ft 430 kts 272°
2026-05-06 18:44 -2.16378 -46.56917 33913 ft 430 kts 272°
2026-05-06 18:44 -2.15843 -46.62897 33913 ft 430 kts 272°
2026-05-06 18:45 -2.15305 -46.68909 33892 ft 430 kts 272°
2026-05-06 18:45 -2.14769 -46.74895 33914 ft 430 kts 272°
2026-05-06 18:46 -2.14233 -46.80886 33914 ft 430 kts 272°
2026-05-06 18:46 -2.13704 -46.86889 33913 ft 430 kts 272°
2026-05-06 18:47 -2.13174 -46.92873 33913 ft 431 kts 273°
2026-05-06 18:47 -2.12638 -46.98867 33914 ft 431 kts 273°
2026-05-06 18:48 -2.12101 -47.04850 33729 ft 430 kts 273°
2026-05-06 18:48 -2.11832 -47.07843 32868 ft 435 kts 273°
2026-05-06 18:48 -2.11559 -47.10886 31885 ft 442 kts 273°
2026-05-06 18:48 -2.11282 -47.13969 30995 ft 446 kts 273°
2026-05-06 18:49 -2.11002 -47.17076 30171 ft 448 kts 273°
2026-05-06 18:49 -2.10722 -47.20195 29360 ft 450 kts 273°
2026-05-06 18:49 -2.10440 -47.23319 28548 ft 451 kts 273°
2026-05-06 18:49 -2.10157 -47.26469 27713 ft 453 kts 273°
2026-05-06 18:50 -2.09874 -47.29608 26991 ft 451 kts 273°
2026-05-06 18:50 -2.09593 -47.32731 26411 ft 446 kts 273°
2026-05-06 18:50 -2.09314 -47.35829 25832 ft 441 kts 273°
2026-05-06 18:50 -2.09039 -47.38886 25244 ft 437 kts 273°
2026-05-06 18:51 -2.08765 -47.41927 24648 ft 433 kts 274°
2026-05-06 18:51 -2.08494 -47.44937 24046 ft 430 kts 274°
2026-05-06 18:51 -2.08225 -47.47920 23456 ft 426 kts 274°
2026-05-06 18:51 -2.07870 -47.51863 22679 ft 421 kts 274°
2026-05-06 18:52 -2.07694 -47.53815 22295 ft 419 kts 274°
2026-05-06 18:52 -2.07302 -47.57689 21526 ft 415 kts 279°
2026-05-06 18:52 -2.06743 -47.59541 21157 ft 414 kts 292°
2026-05-06 18:52 -2.05551 -47.62173 20582 ft 411 kts 294°
2026-05-06 18:53 -2.04339 -47.64773 20018 ft 408 kts 294°
2026-05-06 18:53 -2.03150 -47.67375 19437 ft 405 kts 294°
2026-05-06 18:53 -2.01985 -47.69952 18887 ft 402 kts 294°
2026-05-06 18:53 -2.00830 -47.72511 18345 ft 399 kts 294°
2026-05-06 18:54 -1.99687 -47.75046 17801 ft 396 kts 294°
2026-05-06 18:54 -1.98553 -47.77559 17261 ft 393 kts 294°
2026-05-06 18:54 -1.97424 -47.80062 16715 ft 390 kts 294°
2026-05-06 18:54 -1.96303 -47.82548 16179 ft 388 kts 294°
2026-05-06 18:55 -1.94824 -47.85830 15474 ft 384 kts 294°
2026-05-06 18:55 -1.94087 -47.87464 15120 ft 382 kts 294°
2026-05-06 18:55 -1.92990 -47.89895 14594 ft 379 kts 294°
2026-05-06 18:55 -1.91539 -47.93112 13900 ft 376 kts 294°
2026-05-06 18:56 -1.90818 -47.94712 13555 ft 374 kts 294°
2026-05-06 18:56 -1.89744 -47.97092 13039 ft 371 kts 294°
2026-05-06 18:56 -1.88667 -47.99456 12524 ft 369 kts 294°
2026-05-06 18:56 -1.87601 -48.01803 12019 ft 366 kts 294°
2026-05-06 18:57 -1.86551 -48.04129 11521 ft 363 kts 294°
2026-05-06 18:57 -1.85506 -48.06442 11061 ft 359 kts 294°
2026-05-06 18:57 -1.84476 -48.08722 10615 ft 355 kts 294°
2026-05-06 18:57 -1.83115 -48.11736 9975 ft 352 kts 294°
2026-05-06 18:58 -1.82443 -48.13222 9781 ft 345 kts 294°
2026-05-06 18:58 -1.81471 -48.15375 9773 ft 328 kts 294°
2026-05-06 18:58 -1.80547 -48.17419 9760 ft 312 kts 294°
2026-05-06 18:58 -1.79654 -48.19395 9445 ft 308 kts 295°
2026-05-06 18:59 -1.78762 -48.21368 8972 ft 310 kts 295°
2026-05-06 18:59 -1.77867 -48.23348 8495 ft 309 kts 295°
2026-05-06 18:59 -1.76984 -48.25304 8061 ft 304 kts 295°
2026-05-06 18:59 -1.75829 -48.27859 7531 ft 299 kts 295°
2026-05-06 19:00 -1.75254 -48.29131 7272 ft 299 kts 295°
2026-05-06 19:00 -1.74350 -48.31003 6889 ft 297 kts 300°
2026-05-06 19:00 -1.73324 -48.32772 6716 ft 287 kts 301°
2026-05-06 19:00 -1.72335 -48.34468 6664 ft 274 kts 301°
2026-05-06 19:01 -1.71083 -48.36615 6584 ft 259 kts 301°
2026-05-06 19:01 -1.70473 -48.37663 6535 ft 265 kts 301°
2026-05-06 19:01 -1.69525 -48.39291 6446 ft 267 kts 301°
2026-05-06 19:01 -1.68597 -48.40886 6321 ft 260 kts 301°
2026-05-06 19:02 -1.67667 -48.42483 6213 ft 267 kts 301°
2026-05-06 19:02 -1.66744 -48.44070 6101 ft 260 kts 301°
2026-05-06 19:02 -1.65825 -48.45651 5995 ft 266 kts 301°
2026-05-06 19:02 -1.64903 -48.47241 5895 ft 260 kts 301°
2026-05-06 19:03 -1.63989 -48.48810 5794 ft 264 kts 302°
2026-05-06 19:03 -1.63064 -48.50387 5817 ft 258 kts 302°
2026-05-06 19:03 -1.62158 -48.51933 5861 ft 256 kts 302°
2026-05-06 19:03 -1.60950 -48.53991 5929 ft 257 kts 302°
2026-05-06 19:04 -1.60343 -48.55025 5963 ft 257 kts 302°
2026-05-06 19:04 -1.59211 -48.56398 5987 ft 252 kts 329°
2026-05-06 19:04 -1.57682 -48.57146 5961 ft 237 kts 338°
2026-05-06 19:04 -1.56170 -48.57819 5595 ft 239 kts 338°
2026-05-06 19:05 -1.54624 -48.58512 5110 ft 246 kts 338°
2026-05-06 19:05 -1.53025 -48.59232 4436 ft 258 kts 338°
2026-05-06 19:05 -1.51339 -48.59919 3679 ft 267 kts 349°
2026-05-06 19:05 -1.49534 -48.59773 3049 ft 262 kts 26°
2026-05-06 19:06 -1.48229 -48.58627 2723 ft 243 kts 57°
2026-05-06 19:06 -1.47254 -48.57306 2460 ft 227 kts 49°
2026-05-06 19:06 -1.46234 -48.56134 2170 ft 215 kts 49°
2026-05-06 19:06 -1.45232 -48.55042 1881 ft 203 kts 47°
2026-05-06 19:07 -1.44278 -48.54046 1607 ft 190 kts 46°
2026-05-06 19:07 -1.43385 -48.53134 1355 ft 175 kts 46°
2026-05-06 19:07 -1.42557 -48.52294 1126 ft 162 kts 46°
2026-05-06 19:07 -1.41787 -48.51516 896 ft 151 kts 46°
2026-05-06 19:08 -1.41087 -48.50809 715 ft 135 kts 45°
2026-05-06 19:08 -1.40413 -48.50128 535 ft 137 kts 45°
2026-05-06 19:08 -1.39743 -48.49452 347 ft 135 kts 45°
2026-05-06 19:08 -1.39086 -48.48789 167 ft 132 kts 45°
2026-05-06 19:09 -1.38452 -48.48137 46 ft 123 kts 46°
2026-05-06 19:09 -1.38110 -48.47793 47 ft 26 kts 44°
2026-05-06 19:09 -1.38002 -48.47684 49 ft 13 kts 57°
2026-05-06 19:09 -1.38019 -48.47641 49 ft 5 kts 172°
2026-05-06 19:10 -1.38031 -48.47650 49 ft 2 kts 273°
2026-05-06 19:10 -1.38030 -48.47659 49 ft 0 kts 247°
2026-05-06 19:10 -1.38033 -48.47664 49 ft 1 kts 248°
2026-05-06 19:11 -1.38034 -48.47668 49 ft 0 kts 252°
2026-05-06 19:11 -1.38051 -48.47712 48 ft 15 kts 243°
2026-05-06 19:11 -1.38140 -48.47820 46 ft 24 kts 225°
2026-05-06 19:11 -1.38334 -48.48012 46 ft 33 kts 226°
2026-05-06 19:12 -1.38425 -48.48106 46 ft 26 kts 225°
2026-05-06 19:12 -1.38563 -48.48246 43 ft 20 kts 225°
2026-05-06 19:12 -1.38636 -48.48317 44 ft 7 kts 209°
2026-05-06 19:12 -1.38672 -48.48304 45 ft 6 kts 126°
2026-05-06 19:13 -1.38681 -48.48248 45 ft 10 kts 87°
2026-05-06 19:13 -1.38679 -48.48160 44 ft 15 kts 89°
2026-05-06 19:13 -1.38678 -48.48091 43 ft 1 kts 100°
2026-05-06 19:13 -1.38691 -48.48078 43 ft 4 kts 152°
2026-05-06 19:14 -1.38712 -48.48081 43 ft 4 kts 207°